GFSFLT2_sfc_wetblb_171.txt.gz
Wetbulb
48.29 50.16 48.49 47.95 48.94 48.59 47.30 45.58 45.82 43.16 43.90 44.73 44.69 45.29 45.77 45.86 46.11 46.25 47.08 48.32 49.32 50.22 51.13 51.00 50.97 51.07 51.27
45.85 47.19 47.61 47.15 47.90 46.10 46.32 44.54 43.13 42.02 42.05 42.87 43.42 44.22 44.14 44.11 44.10 44.11 45.07 46.54 47.19 47.04 47.47 47.64 48.00 48.27 48.55
43.31 45.79 46.21 46.11 45.12 44.69 44.01 43.28 43.44 38.70 40.01 42.01 43.98 43.60 43.26 42.86 42.35 42.33 43.41 44.40 43.98 43.75 43.46 43.88 44.27 44.66 45.13
41.93 41.58 41.88 42.61 41.79 39.53 39.33 41.99 40.23 40.55 38.24 39.23 41.73 42.53 41.68 40.41 39.73 39.63 41.67 43.00 42.61 42.63 42.21 42.01 42.19 42.81 42.91
38.44 38.27 37.80 37.46 37.54 38.78 37.04 37.38 38.52 38.04 36.44 36.23 36.93 38.09 38.19 38.33 37.66 38.07 40.58 41.64 41.44 41.35 40.38 40.08 39.87 40.08 40.39
37.24 35.90 36.52 37.04 37.32 36.06 35.41 34.46 33.35 36.73 34.47 34.98 35.14 35.36 36.73 35.76 39.06 40.23 41.20 41.32 40.06 38.59 38.46 38.60 38.81 39.11 39.43
38.68 38.13 36.95 37.43 36.76 34.94 34.95 34.35 33.93 34.06 33.07 31.95 34.15 33.19 36.25 36.20 37.83 40.83 41.63 40.70 38.88 37.12 37.17 37.71 38.07 38.31 38.45
41.36 40.65 39.85 39.08 36.99 36.13 34.67 34.21 35.01 34.34 33.11 29.95 33.16 31.55 34.30 34.14 38.79 40.93 41.52 40.13 39.41 36.75 36.21 36.67 36.93 37.29 37.55
44.34 44.10 43.95 41.51 38.45 35.14 32.78 31.44 31.28 32.67 32.86 31.18 31.98 30.81 30.98 31.43 34.33 39.87 40.85 39.83 39.27 37.73 36.83 36.60 36.33 36.78 35.46
38.26 39.42 41.35 40.05 40.27 36.50 34.15 32.16 31.24 30.64 33.10 30.61 30.34 29.74 28.95 30.58 31.28 34.37 36.37 38.70 38.34 38.06 37.60 36.68 35.80 32.37 31.51
38.23 37.70 37.06 37.18 36.61 36.45 35.65 33.37 31.95 31.22 33.40 32.47 30.30 29.88 27.26 27.72 29.70 30.74 32.99 33.35 33.22 33.81 36.38 35.20 35.10 34.09 29.69
37.20 35.52 34.69 34.30 34.43 35.32 35.19 34.11 34.12 32.93 32.82 31.95 30.47 31.66 28.03 25.86 26.21 28.82 28.75 29.33 30.30 29.72 31.24 33.23 34.66 34.96 35.33
35.74 34.86 35.14 34.42 33.42 32.55 31.60 31.70 30.73 30.91 31.61 31.98 31.36 28.94 27.37 26.76 26.09 27.09 26.12 29.03 29.99 29.70 29.95 29.61 28.72 28.63 28.26
35.63 35.90 34.83 34.25 33.65 33.29 31.98 30.18 28.03 29.25 30.99 31.57 30.23 29.70 26.83 28.48 26.81 26.51 28.03 24.97 28.65 28.92 28.75 29.11 29.95 29.60 29.28
34.62 34.33 34.01 33.24 32.78 33.69 32.41 31.45 28.30 27.71 29.26 29.14 30.40 29.53 28.65 25.75 25.57 28.31 27.61 27.97 29.68 28.57 27.96 26.60 28.52 29.16 29.27
33.86 34.05 33.39 32.48 32.16 32.07 31.93 31.24 29.59 29.86 30.05 29.35 27.67 26.41 26.67 27.72 30.47 27.36 26.26 26.25 28.61 27.17 26.67 22.77 25.66 29.05 29.44
33.13 33.27 33.09 32.51 32.66 31.72 31.12 30.80 29.86 30.56 30.75 29.90 28.01 25.98 24.64 23.45 27.47 32.22 26.80 28.32 27.41 25.58 25.60 25.37 24.95 27.36 28.07

GFSFLT2_sfc_wetblb_174.txt.gz
Wetbulb
43.51 44.38 44.16 44.15 45.15 46.39 47.27 42.60 41.97 44.70 43.56 44.18 44.38 45.43 45.57 45.48 45.63 46.45 48.10 49.86 50.60 50.76 51.02 51.15 51.39 51.74 52.03
41.69 41.70 42.58 43.17 43.15 42.93 44.47 44.63 40.17 43.32 42.14 43.02 43.78 44.54 44.19 43.88 43.65 44.38 46.49 46.19 46.68 47.11 47.94 48.28 48.45 49.06 49.58
40.25 41.17 41.39 42.06 41.40 41.16 40.36 40.04 41.55 43.23 42.01 41.83 43.93 44.36 43.66 42.97 42.02 42.37 44.04 44.12 43.92 43.82 44.09 44.50 44.99 45.72 46.53
38.77 38.49 37.99 38.67 37.54 36.86 35.43 37.40 38.04 39.84 39.80 39.34 41.61 43.55 43.37 42.11 40.67 39.76 41.86 42.93 42.97 42.85 42.63 42.46 42.82 43.35 43.63
35.37 35.08 34.62 34.48 33.75 34.87 34.36 33.96 34.23 35.35 33.08 33.53 33.13 35.62 36.44 40.67 38.81 39.14 39.91 41.96 41.79 41.51 40.57 40.17 40.08 40.27 40.62
34.34 33.52 33.54 34.01 34.17 33.08 32.21 30.66 29.12 33.17 31.32 30.91 32.84 32.12 34.30 33.78 38.80 40.13 40.33 41.98 40.97 39.09 38.67 38.80 38.91 39.04 39.31
36.13 35.08 34.01 34.54 33.59 31.48 31.06 30.60 30.19 32.13 30.10 28.27 30.63 30.20 32.20 35.89 40.12 39.78 41.16 42.00 40.60 38.12 37.31 37.56 37.85 38.22 38.51
41.59 40.54 37.17 36.36 33.93 33.44 31.91 30.95 30.93 31.30 30.07 26.20 29.05 28.51 30.48 30.76 39.17 38.96 41.48 41.79 40.75 38.80 37.16 36.85 37.22 37.55 37.92
44.32 43.71 43.46 44.20 37.88 32.55 29.76 27.86 27.50 29.07 29.25 28.52 28.32 28.03 28.42 28.35 30.70 39.68 41.05 41.85 40.33 39.99 38.40 37.61 37.36 37.13 34.72
36.52 38.58 41.29 40.02 42.47 33.29 31.03 27.44 26.92 25.95 29.72 27.24 25.93 25.99 23.58 26.62 28.42 31.98 33.41 40.44 40.04 39.44 39.40 38.72 38.20 32.24 30.69
35.28 35.00 34.18 34.18 34.58 34.61 32.67 30.32 26.54 27.61 31.17 27.32 25.44 22.56 20.83 22.78 25.52 26.23 30.12 31.48 32.21 33.73 37.69 38.55 37.49 34.99 29.50
34.76 35.64 34.91 34.20 32.54 32.44 32.35 31.80 31.61 31.86 31.39 29.15 20.34 22.44 20.20 18.16 22.71 26.82 24.93 26.99 28.17 26.41 27.31 32.76 35.17 35.68 36.20
35.13 34.84 34.54 36.10 33.91 32.72 30.22 29.90 28.43 30.31 30.60 27.96 23.91 25.46 20.16 17.85 20.60 22.39 22.98 26.84 26.37 25.38 25.30 26.77 26.99 27.57 25.67
34.20 34.37 33.63 33.08 33.06 33.14 32.01 30.04 27.52 21.31 27.46 30.66 29.04 23.78 19.57 21.57 20.93 19.92 24.14 21.52 24.78 25.10 24.97 26.56 29.16 29.02 28.37
33.03 33.35 33.68 33.42 33.00 32.91 32.65 30.93 27.34 19.23 26.73 28.42 27.82 26.98 24.56 20.33 19.28 25.86 26.22 24.09 24.84 25.00 23.84 23.30 27.75 28.43 27.82
33.45 33.25 33.08 32.88 32.86 32.14 32.19 31.43 29.10 27.70 25.65 28.56 27.43 26.36 25.24 24.83 29.73 25.31 22.08 23.48 24.04 24.42 24.64 22.70 24.90 26.88 27.85
33.12 33.19 32.89 32.67 32.94 31.95 31.52 31.11 28.61 27.98 29.23 28.82 26.25 24.19 20.00 19.54 26.04 32.13 25.53 24.94 24.85 24.82 25.09 24.33 22.91 26.80 27.03

GFSFLT2_sfc_wetblb_180.txt.gz
Wetbulb
43.11 42.31 42.14 43.09 43.69 43.35 43.88 42.82 42.56 47.10 48.21 47.02 45.47 44.83 45.01 45.19 44.56 46.32 46.99 47.81 49.36 50.26 50.81 51.80 52.75 53.62 54.61
45.60 40.89 40.96 41.78 41.46 40.59 42.68 43.72 41.71 44.15 46.87 47.03 45.34 44.55 45.00 44.49 43.19 43.63 45.03 44.76 45.50 46.53 47.45 48.69 50.09 50.81 51.52
43.99 40.78 40.16 39.43 39.21 39.12 38.83 38.50 39.50 42.58 45.05 46.77 45.64 44.27 45.21 44.76 43.20 41.03 43.22 43.36 43.48 43.75 44.63 45.53 46.54 47.47 48.20
41.87 40.14 38.34 38.61 35.97 35.32 34.80 34.14 34.90 38.41 40.47 42.00 41.13 41.99 43.74 44.87 44.22 41.80 40.11 42.84 42.86 42.91 42.06 41.67 42.40 43.36 44.10
37.80 35.13 35.00 34.49 34.47 34.14 32.15 32.21 32.90 32.85 32.33 32.99 33.21 33.12 34.24 41.48 42.68 42.58 40.83 41.14 42.58 42.13 40.76 40.26 40.44 40.90 41.20
39.09 37.32 36.13 34.51 33.71 32.99 31.51 30.34 29.94 31.01 30.82 30.27 31.01 30.64 31.75 32.66 39.08 41.43 41.21 40.36 42.49 41.73 39.87 39.19 39.08 39.26 39.43
36.27 35.54 34.92 34.82 34.41 32.20 30.95 30.40 29.72 30.67 30.03 28.96 28.68 29.04 30.51 33.25 39.71 41.29 41.71 41.33 41.66 41.74 39.36 38.49 38.12 38.17 38.38
38.85 39.59 37.56 37.43 35.75 34.53 32.27 30.01 30.00 30.57 30.12 27.41 27.56 27.83 29.04 29.61 37.13 40.33 41.93 41.28 41.42 41.56 39.64 38.33 37.67 37.62 37.79
43.11 43.57 43.85 44.07 39.04 31.69 29.80 27.91 27.74 28.20 28.70 28.74 27.92 27.86 27.86 28.32 29.90 37.55 41.11 40.49 41.71 42.08 40.50 39.65 38.78 38.41 35.01
34.93 35.90 36.91 39.27 44.57 34.47 31.62 28.72 28.51 31.18 29.26 27.53 25.53 25.93 24.45 26.68 28.13 29.19 30.67 38.90 40.87 42.08 41.10 40.26 39.80 35.41 30.64
33.80 33.77 33.45 33.60 33.38 35.02 32.75 30.76 26.87 29.85 31.16 27.84 25.38 23.60 21.07 22.38 25.26 25.13 28.28 30.32 31.33 33.75 40.69 40.28 39.67 38.30 30.20
34.46 34.31 34.23 34.80 35.07 35.10 35.07 34.03 34.49 34.06 33.23 29.06 25.68 27.14 18.48 19.10 22.10 24.72 22.46 25.04 27.43 25.89 26.60 33.61 37.67 37.92 38.14
33.82 32.29 30.61 33.07 33.87 33.25 32.72 33.59 32.81 32.83 33.14 32.20 29.77 26.22 24.88 21.87 20.24 20.53 22.01 24.00 23.41 22.64 21.93 24.21 25.14 26.73 24.69
32.88 33.32 33.64 34.05 33.18 32.84 32.56 32.02 31.81 31.54 31.63 32.50 31.19 28.73 26.06 24.59 23.79 20.55 20.94 20.86 20.29 20.94 23.61 24.39 27.29 27.46 26.88
32.23 32.57 32.65 32.52 32.70 32.82 32.55 32.02 31.38 30.59 29.83 29.48 30.24 29.73 27.23 24.52 21.23 23.14 24.64 21.54 21.80 20.20 22.75 21.31 25.76 27.19 27.31
32.66 32.44 32.46 32.42 32.56 32.44 32.30 32.03 31.16 31.39 30.12 29.43 27.83 26.00 25.16 25.80 29.15 25.78 22.54 22.03 20.17 22.04 21.84 16.67 22.02 25.48 27.12
32.31 32.46 32.57 32.47 32.81 32.61 32.34 32.02 31.72 31.45 31.01 28.63 26.32 21.08 15.10 15.26 25.82 32.24 21.45 18.13 19.06 19.95 22.37 23.32 19.24 25.96 26.78

GFSFLT2_sfc_wetblb_183.txt.gz
Wetbulb
43.89 42.53 41.51 42.72 43.68 43.49 43.20 41.92 42.14 46.97 48.83 48.93 48.00 46.06 45.31 45.36 44.48 45.27 46.50 47.17 48.37 49.35 50.50 51.80 52.88 53.84 54.75
43.10 42.48 41.06 41.32 41.91 40.62 41.82 42.72 40.87 44.14 46.82 47.38 47.76 46.51 45.18 45.28 43.69 42.61 44.71 44.48 45.25 46.25 47.34 49.21 50.45 51.13 51.93
42.82 41.00 40.53 39.25 39.07 38.81 38.62 38.10 38.73 41.54 43.43 45.15 46.53 47.00 45.29 45.59 44.62 42.20 42.34 43.23 43.31 43.65 44.82 45.81 47.01 47.93 48.65
41.19 39.62 38.69 38.47 36.20 36.29 35.94 34.40 34.35 37.23 39.49 40.30 43.26 43.48 43.89 44.48 45.19 43.83 40.58 42.69 42.96 42.82 41.62 41.60 42.63 43.69 44.54
40.01 37.80 35.43 34.64 35.04 35.06 32.90 32.38 32.84 33.16 31.85 32.24 32.85 33.46 34.01 38.39 41.99 44.30 42.48 40.82 42.96 42.78 41.07 40.38 40.65 41.14 41.52
39.90 39.35 39.55 37.07 34.10 33.62 32.25 31.22 32.06 30.63 30.33 29.98 30.72 30.26 31.17 31.44 38.12 41.36 43.20 42.14 41.21 42.83 40.92 39.65 39.36 39.46 39.70
39.01 37.02 34.97 35.05 34.17 31.95 31.08 31.48 30.89 30.74 30.14 29.05 28.76 29.17 30.20 32.37 38.90 40.64 41.96 41.99 41.01 42.60 40.81 39.32 38.66 38.56 38.66
38.17 38.82 37.03 36.89 35.70 35.00 32.99 30.69 30.12 29.97 30.03 27.63 27.65 27.66 28.81 29.16 37.02 40.18 41.80 42.33 41.81 42.17 41.04 39.37 38.23 37.85 37.97
41.81 42.72 43.39 43.77 40.78 31.57 29.97 27.84 28.21 28.49 28.49 28.68 27.38 27.27 27.51 27.74 29.19 36.58 41.19 42.22 41.57 41.67 41.70 40.11 39.25 38.72 35.46
34.23 35.34 36.73 36.05 41.63 36.30 32.25 27.71 29.05 30.93 28.76 27.40 25.13 25.53 23.83 25.35 27.63 28.39 30.17 38.67 40.83 41.99 42.15 41.12 40.35 36.82 34.00
36.87 34.95 33.15 32.93 33.07 36.54 36.16 34.22 31.82 32.74 32.68 28.30 20.23 21.90 19.75 22.69 25.10 24.98 27.58 29.89 31.89 33.96 39.46 41.07 40.51 38.86 35.21
35.12 34.96 34.54 34.79 34.70 35.18 35.10 34.72 35.06 34.71 34.68 31.86 31.12 25.00 18.75 17.64 22.43 25.46 23.59 24.90 27.60 26.79 27.31 33.68 37.49 39.31 39.13
33.50 33.29 32.81 33.53 33.57 33.37 32.40 33.64 33.17 33.62 34.17 32.91 31.38 27.88 25.77 24.10 20.63 21.24 23.29 24.31 23.66 23.93 21.91 25.08 26.01 27.21 25.30
33.33 33.21 32.99 33.00 32.83 33.00 32.71 32.65 32.06 32.32 32.06 32.93 32.37 30.76 28.02 27.22 25.68 20.02 22.24 22.75 20.32 21.57 23.80 24.96 27.33 27.26 26.99
32.67 32.43 32.35 32.15 32.25 32.61 32.49 32.36 31.73 31.68 30.95 30.61 31.30 30.94 30.06 26.86 26.24 24.98 24.88 22.58 21.57 20.13 22.17 21.20 25.45 27.26 27.04
32.65 32.27 32.02 32.07 32.17 32.14 32.29 32.08 31.67 31.85 31.52 30.69 28.16 26.79 24.97 25.86 29.85 25.63 23.30 22.85 20.72 20.48 21.26 16.22 20.41 24.72 26.91
32.52 32.16 31.95 32.13 32.53 32.34 32.27 32.04 31.66 31.88 32.06 30.56 27.81 25.28 18.90 16.77 24.56 32.09 23.09 22.22 18.17 19.00 21.14 23.21 17.77 23.42 26.65

GFSFLT2_sfc_wetblb_186.txt.gz
Wetbulb
43.00 42.47 40.75 41.96 43.47 43.26 43.60 42.07 41.58 46.85 48.68 49.04 49.13 48.43 46.43 45.46 44.97 43.83 45.86 46.09 47.50 48.65 50.48 51.84 52.81 53.75 55.05
44.08 41.22 40.66 40.77 40.98 40.91 42.46 42.53 40.73 43.78 46.44 47.31 47.74 47.93 47.02 45.55 45.18 42.97 44.00 44.10 44.46 45.84 47.64 48.94 50.13 50.94 51.65
42.38 41.63 40.41 39.29 39.21 38.67 38.66 38.63 39.26 42.07 44.03 44.84 45.97 46.90 47.50 45.73 45.88 44.20 41.88 43.40 43.32 43.47 43.68 44.87 46.53 47.69 48.58
40.73 41.44 39.54 38.54 37.42 36.12 36.57 35.22 35.73 36.78 39.80 41.09 42.36 43.89 46.94 45.97 45.73 45.36 42.30 42.53 43.50 43.13 41.61 41.82 42.95 44.06 44.96
38.75 39.35 37.38 37.58 38.39 38.27 34.38 32.93 33.28 33.64 32.39 32.31 32.33 33.31 35.54 41.85 42.05 44.74 44.00 41.83 43.37 43.67 41.90 40.83 41.11 41.51 42.14
38.88 38.58 38.02 35.76 38.11 37.46 35.06 33.42 35.14 30.78 30.09 30.07 30.81 30.14 31.34 31.47 37.88 41.48 44.84 43.82 42.01 43.60 42.39 40.97 40.21 40.18 40.48
39.92 40.17 38.36 37.34 37.37 35.37 31.59 31.92 32.62 33.01 31.49 29.38 29.06 29.24 30.33 31.87 38.52 40.43 42.15 43.64 42.90 42.38 42.66 40.93 40.07 39.66 39.51
36.57 38.76 39.69 40.09 38.17 37.66 36.27 34.23 31.98 30.36 29.78 27.51 27.80 27.99 28.81 29.11 35.80 39.19 41.58 42.65 42.52 41.89 42.62 40.70 39.53 38.78 38.48
41.33 41.54 41.87 42.75 41.74 34.98 33.15 32.06 31.85 30.91 28.57 28.66 27.49 27.24 27.47 27.68 29.02 35.55 40.11 42.15 42.69 42.24 42.77 40.76 39.56 38.82 36.49
35.89 36.92 37.46 35.86 39.86 37.79 36.22 33.26 32.02 31.87 31.41 28.82 25.86 25.93 24.29 25.28 27.43 28.04 29.77 39.16 42.37 41.81 42.29 41.38 40.23 37.08 34.91
37.45 36.99 36.56 35.84 34.95 35.34 36.70 35.65 33.03 33.65 33.94 32.09 28.17 26.94 24.43 22.08 24.42 24.76 27.26 29.04 31.48 33.81 40.84 42.08 41.11 39.09 35.39
34.58 34.39 34.37 34.83 34.47 35.06 35.13 35.37 36.10 35.61 35.31 33.14 31.99 30.81 28.84 25.80 25.50 24.83 22.81 24.49 27.33 25.90 26.81 33.67 37.70 41.33 40.31
33.40 33.61 33.41 34.14 33.26 33.30 33.19 33.83 33.07 33.52 35.01 33.60 32.47 30.86 29.75 29.71 28.61 26.99 28.08 27.04 25.46 23.00 22.24 24.84 26.66 28.92 27.27
33.80 32.74 32.79 32.84 32.92 32.75 32.52 32.61 32.20 32.80 32.58 33.11 32.73 31.88 29.64 29.89 29.27 26.39 26.36 26.98 25.32 25.88 25.91 25.07 27.32 27.57 27.42
32.31 32.95 32.57 32.44 32.37 33.14 32.73 32.35 31.87 31.91 32.02 31.53 32.05 32.05 32.18 30.29 27.80 27.45 25.38 24.44 25.14 24.73 23.42 22.99 26.24 27.44 27.40
32.23 32.32 32.23 31.88 31.64 31.64 32.25 31.86 31.69 31.86 31.74 31.65 28.90 27.49 27.13 28.00 31.73 27.68 23.43 22.35 23.77 25.03 22.82 19.45 23.11 26.81 26.81
29.50 31.13 32.20 32.01 32.24 31.93 32.07 31.90 31.52 31.91 32.27 31.80 28.52 26.69 21.34 19.35 24.83 32.54 23.52 22.42 20.88 20.05 22.07 22.48 21.34 24.30 26.39

GFSFLT2_sfc_wetblb_192.txt.gz
Wetbulb
47.11 48.47 48.46 49.11 49.84 50.96 51.34 51.48 51.70 51.58 50.70 50.72 50.66 50.43 50.27 50.43 49.98 48.25 47.58 46.56 46.62 47.82 49.72 51.33 52.67 54.08 55.92
44.41 46.43 46.53 48.03 48.61 48.02 48.58 49.83 50.38 50.13 50.34 49.42 49.70 49.69 49.48 49.84 49.86 48.37 47.35 45.73 45.61 45.46 47.04 48.87 50.02 51.32 52.91
42.06 44.62 45.12 46.54 45.52 46.17 46.26 48.37 49.02 47.66 47.95 47.86 48.62 49.09 48.66 48.37 49.13 48.69 47.32 45.44 45.07 44.69 44.43 45.17 46.56 48.21 50.02
42.19 41.10 42.33 43.83 43.56 42.06 42.55 46.68 46.76 47.40 46.93 45.86 46.21 47.01 46.42 47.01 48.21 48.04 47.15 45.68 44.50 44.76 43.63 43.38 44.22 45.39 47.26
37.34 38.31 38.99 40.63 40.87 41.99 41.27 42.87 44.26 45.01 44.67 46.06 46.80 47.01 46.94 45.80 45.49 47.18 47.02 46.19 44.37 44.50 44.29 42.82 43.15 43.66 44.56
38.17 37.23 38.16 39.33 40.70 40.76 40.38 39.01 38.21 44.29 42.09 42.93 43.72 42.86 44.33 44.45 45.62 46.55 46.65 46.70 45.49 43.78 44.63 42.88 42.20 42.34 43.07
38.86 38.98 38.89 40.51 41.16 40.55 39.40 38.55 38.42 40.84 36.50 37.07 42.03 42.80 45.42 42.18 41.31 42.37 43.78 44.69 45.95 44.41 44.45 43.40 42.08 41.57 41.60
40.89 40.80 40.44 40.55 40.23 40.22 39.97 39.48 39.19 39.58 36.60 33.61 40.72 40.26 43.96 43.30 40.66 40.27 41.29 42.19 44.23 45.48 43.58 43.93 42.12 41.25 40.93
42.24 42.45 42.04 41.95 41.85 40.53 36.49 34.70 34.63 36.75 37.19 35.58 37.75 37.30 41.02 41.23 41.24 36.72 38.93 41.20 42.84 44.76 44.04 44.09 42.10 40.98 40.40
40.02 40.65 41.13 40.69 41.03 39.59 38.42 35.03 34.52 33.86 38.76 34.90 36.57 36.94 37.06 37.81 37.85 38.34 38.86 39.56 42.44 43.39 43.94 43.66 41.80 40.77 40.20
39.05 39.52 39.23 39.26 39.50 39.46 38.00 36.38 34.08 34.46 37.34 35.03 35.32 34.81 34.30 37.98 36.33 36.81 37.43 39.42 40.73 42.79 43.52 43.71 41.86 40.39 39.36
37.51 37.21 37.32 37.75 38.53 38.73 39.33 37.64 37.04 35.70 37.67 35.43 32.44 33.64 33.98 34.08 35.02 34.94 36.18 38.02 40.57 41.96 42.81 42.73 42.75 41.56 40.61
35.95 36.32 37.10 38.08 38.15 37.81 37.62 35.52 34.51 35.22 36.43 34.18 33.20 33.47 32.38 32.69 34.43 33.51 33.79 33.66 34.95 37.19 39.33 40.04 40.53 39.82 38.37
34.62 36.46 37.09 36.55 36.04 36.26 34.34 33.87 33.24 34.17 35.23 34.15 34.18 32.95 32.48 33.05 33.57 33.53 35.05 34.02 33.78 33.87 34.68 35.78 37.62 39.49 39.91
33.83 32.65 33.87 34.36 34.20 34.90 33.82 33.18 32.33 32.79 33.39 34.29 32.73 32.11 32.82 32.75 31.60 32.59 32.77 33.49 35.00 33.79 32.45 32.51 33.43 34.61 35.39
33.12 32.99 32.60 32.83 33.06 33.42 32.88 32.29 32.10 32.94 33.16 33.94 32.78 31.66 31.24 32.18 34.77 33.07 33.55 33.52 33.73 33.13 33.42 32.93 33.52 34.62 34.55
32.78 32.93 32.40 32.38 31.34 32.36 31.42 30.69 31.21 32.00 32.75 33.89 32.67 31.73 30.38 29.44 32.62 35.73 32.74 32.47 32.83 32.01 32.13 31.69 32.46 34.56 34.78

GFSFLT2_sfc_wetblb_195.txt.gz
Wetbulb
46.23 47.33 46.78 46.93 47.69 48.77 49.44 49.32 49.83 52.24 53.02 52.60 52.26 51.78 51.77 51.32 51.03 50.87 50.66 49.19 48.33 48.26 49.00 50.88 52.07 52.54 54.64
42.96 43.31 44.14 45.50 45.71 45.80 47.18 47.44 47.30 49.24 51.23 51.22 51.34 50.61 50.75 50.88 50.77 50.49 50.45 48.94 47.80 46.81 46.63 48.64 49.99 50.78 52.39
40.89 43.28 43.72 44.27 43.45 44.30 44.06 44.48 45.70 47.42 49.94 50.03 49.51 49.31 49.60 50.29 50.44 49.96 49.93 49.19 47.48 45.89 45.51 45.85 47.27 48.64 50.34
40.79 40.32 40.13 41.16 41.22 40.33 40.45 43.01 43.45 45.08 46.37 47.41 48.25 48.04 48.56 48.57 49.15 48.07 48.17 48.57 47.46 45.81 45.23 44.29 44.80 46.42 48.48
38.14 38.18 38.02 38.48 38.34 40.27 39.43 41.03 42.29 43.12 42.49 43.26 44.39 44.57 45.37 47.56 46.12 46.33 47.44 48.37 47.40 45.71 45.34 44.54 43.77 44.32 45.93
38.10 37.46 37.71 38.60 39.76 39.41 39.25 38.22 36.59 41.60 38.60 39.42 42.19 40.95 42.48 43.50 45.90 46.79 46.89 48.15 47.56 45.91 44.89 44.87 43.42 43.43 44.04
38.55 38.52 38.06 38.82 39.09 38.00 38.51 38.07 37.72 40.10 37.58 37.03 39.20 39.34 42.45 43.59 45.04 43.48 45.41 47.56 47.34 46.71 45.06 45.14 43.33 42.80 43.05
40.30 40.25 40.17 40.08 39.32 39.23 38.83 38.54 39.16 39.17 38.63 34.04 38.32 38.17 40.10 41.48 44.88 43.23 42.27 43.34 45.57 46.52 45.48 45.31 43.80 42.43 42.31
42.31 42.42 42.49 42.32 41.80 39.15 36.34 34.64 33.31 35.40 37.93 35.90 36.22 36.03 36.55 38.38 40.12 40.35 40.00 41.25 42.47 43.55 45.97 44.77 43.94 42.28 40.55
38.22 39.33 40.78 40.17 40.73 39.24 37.36 34.35 33.44 32.96 36.55 34.06 34.91 34.22 33.85 34.81 34.84 36.24 34.96 39.20 41.35 42.87 44.86 44.82 44.02 38.56 36.43
36.77 37.41 38.14 38.07 37.99 38.61 38.28 36.54 33.61 32.97 36.93 34.49 32.48 33.51 32.41 33.99 33.55 33.46 33.87 35.81 37.30 40.50 43.80 44.82 43.61 40.89 36.25
34.57 34.59 34.52 35.15 35.91 36.63 37.25 37.02 37.98 35.97 36.99 35.83 31.90 32.53 31.86 32.33 32.76 32.28 33.78 34.40 36.14 35.51 37.32 42.48 43.46 42.02 41.34
32.41 32.70 32.50 33.24 33.83 34.03 33.90 35.18 34.96 35.43 36.73 34.14 32.97 32.29 31.88 31.83 31.90 32.02 31.77 31.33 32.39 33.97 35.81 36.35 38.09 38.11 36.98
32.28 32.51 32.18 31.42 31.53 33.69 32.69 32.92 32.88 33.05 34.04 33.94 33.13 32.53 31.78 32.09 31.90 31.87 32.88 32.21 30.41 30.85 32.41 33.53 36.10 37.54 37.69
31.84 31.13 31.14 31.28 31.24 32.14 31.12 29.58 30.82 31.40 32.68 33.58 32.88 32.54 32.22 32.01 31.39 32.02 31.93 31.76 32.95 31.87 30.45 29.73 31.64 33.66 35.19
30.93 29.47 29.60 29.65 29.75 29.03 30.17 28.78 27.89 30.05 31.81 32.97 32.84 31.60 31.07 31.11 34.56 31.65 31.60 32.00 32.82 31.93 31.53 30.87 29.17 31.28 32.30
29.67 30.67 30.10 30.73 29.27 28.03 27.47 26.80 27.31 29.06 31.58 32.56 32.02 30.86 28.53 27.64 31.33 35.77 31.76 31.66 31.60 30.71 31.26 31.39 31.19 32.77 31.86

GFSFLT2_sfc_wetblb_198.txt.gz
Wetbulb
41.08 41.76 41.09 41.44 43.01 43.23 44.26 43.89 44.64 48.93 49.51 50.13 50.90 51.60 51.95 52.01 51.65 51.88 52.09 51.80 51.64 50.49 49.46 49.48 50.91 51.82 52.98
40.27 39.02 39.66 40.65 40.44 39.85 42.59 43.90 42.97 46.54 48.51 48.88 49.86 50.84 50.83 50.43 50.60 51.01 51.27 51.06 50.92 49.91 48.61 47.92 49.05 50.28 51.48
38.42 39.29 39.07 38.66 38.78 39.98 39.87 40.73 43.11 45.32 46.89 48.54 48.05 49.06 50.04 49.84 49.58 49.88 50.39 50.51 50.59 49.61 47.65 46.68 46.72 48.45 49.99
38.04 37.78 36.98 37.65 36.96 37.05 37.27 39.76 40.87 42.79 44.90 45.78 46.62 46.88 48.30 49.36 48.60 47.94 48.27 49.34 49.47 49.45 47.55 46.10 45.28 46.28 48.15
36.36 36.65 36.92 37.21 37.32 38.90 38.04 37.58 38.82 41.83 41.49 40.36 40.64 41.25 43.13 44.56 45.80 46.94 47.10 47.73 48.60 49.26 47.85 46.29 45.06 45.06 46.45
36.41 35.76 36.08 37.29 38.48 37.31 36.89 35.99 33.53 38.10 36.85 37.76 39.69 38.88 39.72 40.67 43.99 45.63 47.00 47.48 47.65 48.61 47.71 46.20 45.27 44.38 45.21
35.05 35.63 35.57 36.93 37.34 35.11 34.38 33.25 33.88 37.73 38.30 36.61 39.51 38.37 39.53 40.83 44.27 45.22 46.04 45.65 47.16 47.96 47.10 45.97 45.43 43.98 44.15
36.82 36.75 37.00 38.03 36.71 36.63 34.97 34.25 35.81 37.77 38.48 34.64 37.41 36.91 38.63 38.97 42.59 44.62 45.22 44.10 45.64 47.58 46.94 45.59 45.33 43.94 43.34
40.53 41.00 41.37 41.87 41.10 36.89 32.17 32.35 31.92 32.87 36.39 35.56 35.92 36.14 37.63 37.52 38.87 41.94 44.47 42.58 42.48 44.43 46.98 45.54 45.17 43.86 41.89
34.61 35.74 37.18 36.68 40.68 36.19 32.95 32.70 31.91 31.32 34.98 33.65 33.52 34.36 32.64 35.13 33.47 35.04 34.59 39.05 40.43 42.00 43.95 45.89 45.03 40.48 36.09
33.26 33.53 33.87 34.00 34.54 34.86 35.24 35.01 32.81 32.09 34.98 34.62 33.16 32.78 31.90 32.22 33.72 33.43 34.06 34.93 36.39 38.79 42.58 44.75 44.82 40.87 36.23
30.75 29.95 30.07 30.69 31.04 32.56 33.01 33.47 33.34 32.68 35.55 36.31 32.16 31.86 31.76 31.55 31.72 33.05 33.04 34.24 35.38 33.63 35.38 42.17 44.94 42.41 40.72
27.90 27.63 27.48 31.09 30.07 29.85 31.00 30.86 29.37 31.90 35.50 34.51 33.40 32.34 31.98 30.82 31.20 32.26 32.29 32.09 32.61 33.58 34.41 36.54 38.24 39.32 37.66
26.62 26.80 28.27 31.21 27.19 26.08 23.37 25.01 22.52 26.97 32.89 33.52 33.66 32.56 31.67 31.99 31.71 31.37 32.33 31.91 31.73 31.72 32.96 33.49 36.65 37.38 37.75
26.23 27.89 28.32 26.63 28.82 30.12 28.84 24.71 20.16 20.56 26.79 32.06 33.30 33.07 32.76 31.64 29.83 31.70 31.86 31.70 32.39 31.79 31.56 31.37 32.86 35.09 36.57
30.36 29.52 28.55 27.80 26.04 29.35 28.71 27.03 26.17 22.52 23.66 28.15 32.24 31.91 30.93 30.41 33.96 30.74 31.53 31.59 31.73 31.43 30.99 30.43 30.57 31.71 33.83
28.73 27.10 28.10 28.32 28.52 28.72 28.80 28.57 26.29 24.88 24.98 30.00 30.08 29.57 27.79 26.61 28.98 35.52 31.00 31.42 31.21 30.33 30.91 31.06 30.26 31.74 31.38

GFSFLT2_sfc_wetblb_201.txt.gz
Wetbulb
39.07 39.92 39.24 39.42 41.33 41.59 41.78 41.00 41.17 45.39 46.34 47.03 48.58 49.23 49.31 50.18 51.33 51.23 50.91 51.14 52.13 53.04 53.10 52.44 51.25 50.43 51.71
35.55 36.56 37.80 39.57 38.93 39.79 41.20 41.67 40.53 43.40 45.72 46.76 47.37 48.72 48.29 48.62 49.46 50.19 49.94 49.89 50.21 51.39 51.75 51.65 50.51 49.44 50.34
34.95 37.16 37.06 38.04 37.95 37.28 37.72 38.15 40.64 43.41 44.93 44.98 46.07 46.70 46.73 46.68 47.52 48.65 49.07 49.19 49.72 50.47 50.82 50.58 49.47 48.55 48.60
35.24 36.25 35.25 37.07 35.48 34.93 36.13 38.36 38.29 40.69 41.96 43.73 44.61 45.36 45.90 46.32 46.01 45.10 45.60 47.30 48.62 49.05 50.17 49.91 48.28 47.15 46.82
34.18 34.33 33.83 33.99 33.65 35.81 35.86 36.67 36.59 37.41 38.65 38.36 38.42 39.42 40.28 42.83 43.12 43.64 44.58 45.21 46.97 48.12 48.98 49.56 48.07 46.50 45.70
32.12 32.18 32.95 33.95 35.51 35.13 34.57 33.20 30.76 34.89 33.65 35.25 36.44 38.01 39.19 39.93 42.46 43.37 44.03 45.13 46.20 47.10 47.68 48.47 48.32 46.57 45.14
31.65 32.27 32.75 34.36 34.65 33.80 33.02 32.33 32.56 35.17 34.99 33.66 34.60 35.92 38.82 39.39 41.72 42.32 42.79 44.13 45.31 46.07 46.26 46.87 47.88 46.64 44.97
33.43 33.99 34.32 34.95 34.60 35.47 34.76 35.16 32.47 33.40 35.00 30.31 32.66 34.54 37.52 37.11 40.16 41.67 41.98 42.81 43.75 45.18 44.26 45.15 46.99 46.00 45.03
38.70 39.07 39.46 39.44 38.35 35.24 31.39 27.50 30.11 28.84 32.63 32.64 31.03 31.39 32.81 34.49 37.64 40.30 41.08 40.67 42.16 43.79 43.68 43.84 46.30 45.58 43.92
33.07 33.98 35.62 34.29 37.88 34.23 31.66 31.41 31.86 30.94 31.71 32.37 32.24 31.90 29.93 34.43 34.77 37.06 36.79 39.41 39.40 40.31 41.61 42.95 44.66 43.08 38.23
31.39 31.45 31.47 31.50 31.90 32.43 32.83 33.35 31.55 27.97 31.72 31.36 31.73 31.64 31.62 30.99 33.23 34.03 35.62 35.37 35.23 37.33 40.04 41.46 42.73 42.64 37.59
29.13 28.43 28.12 28.32 29.16 33.26 33.18 31.05 31.48 31.53 31.14 31.53 31.41 32.09 31.29 30.68 29.79 33.24 34.63 35.32 34.51 33.40 35.97 39.37 41.52 43.34 41.50
27.92 26.81 26.35 26.72 28.85 30.96 31.02 29.19 28.28 29.14 32.15 27.83 32.12 32.36 31.56 30.48 29.99 31.43 32.23 33.31 33.85 32.16 33.25 35.11 36.86 38.77 38.44
26.75 26.09 25.36 24.62 25.27 25.14 21.52 25.21 18.28 22.35 27.68 27.05 30.90 32.06 31.50 31.82 31.41 30.66 32.10 30.69 32.52 32.26 32.29 33.40 36.17 37.21 37.46
29.20 29.41 29.79 29.25 26.47 23.58 22.04 19.64 22.10 17.55 18.77 23.68 27.00 32.39 33.04 32.11 29.99 31.03 30.73 31.64 32.65 32.34 31.38 31.69 33.06 35.10 37.17
28.24 28.57 29.19 25.83 23.39 21.55 24.17 21.61 20.92 21.98 18.87 21.73 24.72 28.52 30.27 29.15 34.12 29.92 30.73 31.22 32.03 31.67 30.93 30.10 30.26 32.32 34.60
23.69 23.68 24.92 25.69 26.05 19.43 23.56 27.55 25.30 25.53 23.01 20.28 16.95 27.15 23.39 23.78 27.67 35.19 30.42 31.56 31.44 30.50 30.44 29.91 28.97 31.17 32.31

GFSFLT2_sfc_wetblb_204.txt.gz
Wetbulb
36.63 37.01 36.26 37.02 39.38 40.70 41.55 39.59 38.94 43.88 45.59 45.87 46.39 46.75 47.02 47.40 47.72 47.40 48.00 49.02 51.01 51.00 51.20 52.03 53.20 53.26 53.11
32.54 33.89 34.86 36.78 37.48 37.06 39.82 40.62 38.77 42.39 44.85 45.22 44.96 45.07 46.29 46.66 47.27 46.86 47.13 47.76 48.49 49.31 49.48 49.80 50.53 52.59 52.91
32.01 34.21 35.25 35.80 35.71 36.13 36.12 36.29 39.23 42.36 43.10 43.57 43.90 44.57 44.70 45.45 45.46 45.05 45.18 45.49 45.70 46.74 47.74 48.65 49.59 50.82 52.35
32.65 32.71 33.38 34.18 33.30 32.83 33.56 36.18 36.06 38.68 40.92 41.40 42.93 43.38 42.94 42.92 42.90 43.27 43.40 43.72 45.05 45.72 46.41 47.39 48.02 49.23 50.87
30.86 31.26 30.96 30.77 31.10 33.84 33.58 34.54 35.07 36.07 35.80 36.00 36.21 36.83 37.61 40.39 40.90 41.94 42.46 43.13 43.54 44.20 45.20 46.40 47.87 48.12 49.20
29.06 29.09 29.55 30.17 32.41 32.61 32.32 32.38 30.65 33.73 31.18 33.46 34.19 35.30 35.54 36.65 40.86 41.43 41.78 42.02 42.53 43.10 43.57 44.83 46.65 47.43 46.80
29.73 29.47 29.34 30.88 32.24 31.30 31.03 30.61 31.21 34.06 33.35 32.26 33.10 32.15 35.09 37.09 39.98 40.33 40.34 42.08 41.83 41.96 43.04 43.85 45.26 46.74 45.76
32.17 32.19 32.04 32.64 33.14 32.93 31.80 31.95 34.82 34.75 32.19 30.62 29.94 30.84 33.49 34.86 38.14 39.23 40.70 41.91 41.70 41.56 42.14 43.75 44.80 45.28 45.35
38.70 38.98 38.82 39.10 38.31 33.67 29.82 30.54 29.60 30.95 33.06 32.41 29.99 28.62 30.34 31.70 33.47 38.75 40.32 40.02 40.35 40.87 41.71 41.57 42.64 43.57 43.49
32.13 33.23 34.99 33.42 37.23 32.19 29.24 29.77 30.34 28.36 32.97 30.18 28.90 28.01 26.23 28.49 30.53 35.37 34.15 37.96 39.42 39.42 40.31 40.73 41.34 41.20 41.56
31.73 30.55 30.41 30.02 30.27 30.25 30.14 32.68 30.93 28.21 29.98 29.27 26.41 28.79 28.71 28.55 28.90 33.84 33.86 35.30 35.68 36.56 38.74 38.94 40.14 40.73 39.75
29.19 29.68 28.45 30.06 28.42 29.15 30.49 30.54 31.75 30.35 31.24 29.03 25.76 22.41 25.90 26.95 27.65 31.93 33.12 34.53 34.59 34.08 33.27 36.19 38.56 40.59 41.39
28.60 29.16 28.53 28.64 27.97 27.46 28.98 28.39 26.74 27.90 31.07 26.24 24.47 27.63 28.74 28.13 28.73 30.10 31.22 32.55 34.02 32.60 33.29 32.50 32.68 36.56 34.30
28.75 29.88 26.47 28.15 29.35 26.40 19.39 19.77 17.13 24.85 27.09 25.88 24.58 25.15 27.98 30.00 31.13 29.79 30.94 29.65 32.54 32.93 32.94 32.77 33.00 36.19 36.60
27.19 27.97 28.68 29.55 28.50 24.15 19.79 15.58 23.13 19.57 19.35 22.98 25.16 27.37 30.74 30.04 29.06 29.84 29.77 30.50 32.11 32.17 31.76 31.72 32.23 33.13 35.31
28.89 28.63 29.46 27.67 24.93 21.93 20.98 15.26 16.55 20.54 18.46 18.18 15.89 23.79 28.62 25.51 32.37 29.35 29.89 30.51 32.11 32.16 31.64 30.03 29.77 31.99 33.07
28.76 28.17 26.64 25.32 26.66 21.03 19.99 18.29 21.07 21.94 20.82 17.31 12.98 14.92 21.81 22.03 24.37 33.21 29.83 31.07 31.54 30.11 30.44 30.26 29.51 30.93 32.01

GFSFLT2_sfc_wetblb_207.txt.gz
Wetbulb
34.61 34.81 33.79 34.71 36.76 38.00 38.99 38.51 39.18 43.08 44.42 44.57 44.95 44.79 44.90 45.39 46.13 46.60 47.26 47.81 47.92 48.27 49.00 50.15 50.50 51.16 51.10
30.61 31.79 32.85 34.51 35.35 34.82 37.58 38.91 37.59 40.96 43.62 43.95 44.03 44.17 44.35 44.56 44.26 44.17 44.14 44.62 45.11 45.57 46.65 47.66 48.87 49.83 50.53
29.81 31.97 33.08 34.18 33.48 33.70 34.02 34.74 37.32 40.69 41.93 42.55 43.30 43.65 43.83 43.26 42.76 43.33 43.20 43.20 43.60 44.26 44.77 45.48 46.42 47.87 49.19
30.22 30.21 31.24 32.91 31.15 29.76 30.24 33.34 34.49 37.46 38.82 40.11 41.60 42.05 42.35 42.05 41.69 41.08 41.51 42.35 42.85 43.21 43.36 43.72 44.50 45.78 47.34
29.03 29.18 28.78 28.41 27.94 30.05 30.42 32.24 33.34 33.53 33.69 34.23 34.42 35.76 36.21 38.86 38.92 39.71 41.38 41.63 41.80 42.23 42.73 43.65 43.75 44.16 45.25
27.63 27.68 27.68 28.13 29.46 28.77 29.28 30.96 28.85 31.00 30.05 32.86 33.45 33.59 34.84 34.93 38.80 40.35 40.30 40.40 41.11 41.85 42.36 42.29 42.37 42.98 44.38
28.26 28.26 28.23 29.41 29.60 28.51 28.26 29.97 29.93 32.66 33.55 31.09 31.82 30.89 33.68 35.30 38.56 39.10 38.92 40.08 40.84 41.10 40.95 41.11 41.50 42.19 43.24
30.19 30.76 30.94 32.49 31.01 31.64 33.35 29.71 30.00 31.21 33.52 29.00 29.78 30.99 31.78 33.10 36.95 37.67 38.33 38.93 39.51 39.98 40.31 40.69 40.95 41.27 42.25
37.33 38.19 38.61 38.83 38.10 32.58 28.38 26.47 27.00 28.44 32.70 31.06 30.77 28.61 29.19 29.94 31.36 36.21 37.30 38.28 38.40 38.88 39.63 39.58 40.60 40.84 40.55
30.22 32.06 34.74 32.82 36.93 32.49 29.20 27.86 28.03 27.13 30.63 27.93 27.00 26.10 25.41 26.72 27.49 30.59 32.84 35.91 37.56 38.02 38.43 39.12 40.02 37.72 37.34
29.81 29.78 30.00 29.80 30.62 30.55 30.37 26.88 29.62 29.23 29.34 29.96 22.76 26.22 22.53 26.84 27.01 29.42 30.06 32.19 33.07 34.88 36.99 38.33 38.63 38.65 35.64
28.75 29.10 28.60 28.71 29.38 29.59 29.37 29.28 29.44 29.15 29.28 28.70 28.12 26.20 25.19 25.47 24.60 27.93 30.24 32.44 32.01 32.23 34.18 36.61 37.90 38.17 38.51
28.84 27.99 27.90 29.07 28.67 27.34 28.61 28.84 26.66 26.76 29.10 25.51 25.59 22.13 23.15 25.73 25.54 27.26 28.41 30.41 32.41 32.64 33.19 33.42 32.77 33.13 31.75
27.95 28.48 27.20 23.93 26.27 28.91 27.05 23.34 16.49 21.34 26.42 23.73 20.60 19.56 16.32 24.87 28.51 27.23 28.66 28.20 31.52 32.46 32.71 33.10 33.43 33.37 32.94
28.48 28.70 28.07 28.30 29.01 30.49 25.43 20.67 20.86 16.25 20.19 21.63 24.65 22.57 23.65 25.21 25.42 25.83 25.85 28.72 30.57 31.62 31.71 31.07 32.23 32.36 32.22
29.19 28.76 28.69 28.96 28.86 25.08 24.38 20.74 16.70 16.74 17.71 17.27 13.77 22.69 20.68 24.46 30.12 24.57 28.17 28.56 30.21 31.93 31.42 29.59 29.58 31.96 33.17
27.54 27.13 26.09 25.19 26.70 20.67 23.84 24.46 16.60 17.69 19.37 14.76 14.12 19.95 17.29 17.68 23.40 31.35 19.93 26.63 30.23 29.47 30.20 30.09 29.23 30.95 32.66

GFSFLT2_sfc_wetblb_210.txt.gz
Wetbulb
32.56 33.86 32.13 32.62 34.72 35.94 37.27 35.98 35.86 41.48 42.68 43.22 43.68 43.96 44.40 44.66 44.91 44.94 44.50 44.80 45.72 46.01 46.40 46.69 47.33 47.97 48.49
29.87 30.18 30.94 32.37 33.23 33.17 35.99 37.11 34.91 38.88 41.70 42.02 42.04 42.46 43.52 44.02 44.19 43.68 43.21 43.49 43.49 43.98 44.79 45.25 45.83 47.01 47.54
28.26 29.82 31.25 32.07 31.90 32.12 31.92 31.69 34.94 38.62 40.07 40.38 40.67 41.43 42.23 42.78 41.73 41.97 41.93 41.96 42.59 43.05 43.21 43.78 44.13 44.61 45.78
27.83 28.44 28.96 31.19 29.75 28.66 28.02 30.28 31.49 35.38 37.18 38.08 39.25 39.27 39.90 40.28 40.28 40.12 40.43 41.39 41.94 41.92 41.91 42.25 42.70 44.02 44.37
27.56 27.58 27.98 27.78 27.23 28.51 28.40 28.64 30.43 31.70 30.79 31.54 32.53 33.44 34.35 37.25 37.47 38.70 40.08 40.23 40.57 40.88 41.74 42.24 43.13 42.97 42.71
26.40 27.04 27.14 27.12 27.52 28.40 27.68 26.54 28.11 30.23 28.98 31.48 31.35 31.63 32.93 33.57 37.94 39.37 38.72 39.18 39.50 40.00 40.68 41.47 41.29 41.14 41.51
27.62 27.60 27.07 28.39 28.42 28.01 27.35 26.66 30.10 31.42 29.30 28.94 29.06 29.56 32.02 33.82 37.46 37.47 37.48 38.23 38.65 39.11 39.53 39.68 40.57 40.75 41.00
28.83 29.22 29.63 31.12 30.15 31.73 32.59 32.91 29.90 29.17 29.33 26.19 28.36 29.13 31.11 31.48 35.89 36.14 36.26 36.51 36.80 37.70 37.94 39.24 39.12 39.26 40.10
37.24 37.57 37.91 38.54 37.46 31.38 30.22 29.17 28.44 26.35 28.14 27.41 28.87 27.30 27.92 29.71 29.60 34.31 35.56 35.41 35.83 36.61 37.69 38.31 38.40 38.95 39.04
29.24 31.29 33.68 32.16 36.72 31.95 29.50 29.28 29.05 25.13 29.05 29.21 27.31 25.66 25.89 26.28 26.19 28.87 28.51 33.43 35.00 35.33 36.56 37.18 37.71 35.98 35.17
29.63 31.03 31.16 29.19 29.99 29.50 29.60 29.64 28.70 27.83 29.39 25.21 18.28 23.03 27.39 26.14 25.35 26.02 27.40 29.05 31.37 32.73 35.18 36.32 36.87 37.23 35.13
28.14 28.41 28.07 28.13 28.47 28.80 29.22 28.99 29.71 29.27 28.84 27.05 16.73 22.56 26.16 25.32 24.37 25.92 27.58 29.06 30.93 31.21 32.51 34.59 35.93 36.69 37.94
27.91 27.98 27.56 28.46 28.64 27.32 28.04 28.00 29.06 28.49 29.33 24.80 21.28 20.53 23.59 24.50 23.53 24.58 26.52 27.52 28.78 31.03 31.03 31.51 32.06 33.19 31.95
26.91 27.70 27.96 23.47 26.05 26.72 23.75 23.42 23.93 22.98 27.47 27.01 18.89 15.44 16.07 20.04 22.30 25.00 26.44 24.83 27.48 29.72 30.46 31.65 32.98 33.54 33.03
27.21 27.49 27.96 28.25 28.43 29.98 29.28 24.17 21.33 15.78 17.19 22.71 24.66 20.93 20.95 21.53 23.13 24.26 24.36 23.92 28.55 28.57 29.74 30.31 31.05 32.25 32.86
27.48 27.00 26.16 26.50 26.26 24.45 23.50 17.87 18.34 17.88 18.68 15.42 11.83 17.89 17.75 22.41 27.79 23.20 23.00 23.39 26.27 27.48 29.42 28.21 28.40 31.23 32.57
25.68 26.14 26.51 26.44 25.78 23.69 23.90 23.35 21.42 22.31 17.63 13.28 8.22 16.12 11.08 15.15 21.67 30.56 18.26 22.49 24.53 25.81 26.74 28.18 28.60 29.45 31.74